Tracking 17857 objects as of 29-September-2016
HD Live streaming from Space Station
objects crossing your sky now

ACRIMSAT

Track ACRIMSAT now!
10-day predictions
ACRIMSAT is classified as:


NORAD ID: 26033
Int'l Code: 1999-070B
Perigee: 672.8 km
Apogee: 714.3 km
Inclination: 97.9 °
Period: 98.5 minutes
Semi major axis: 7064 km
RCS: 0.514 m2 (medium)
Launch date: December 21, 1999
Source: United States (US)
Launch site: AIR FORCE WESTERN TEST RANGE (AFWTR)

Monitor total solar irradiance (TSI) with maximum precision; ascertain the extent of solar radiation variability.
Your satellite tracking list
Your tracking list is empty





NASA's NSSDC Master Catalog

Two Line Element Set (TLE):
1 26033U 99070B   16273.13435559  .00000119  00000-0  32582-4 0  9998
2 26033  97.9000  59.4907 0029381  88.5005 271.9563 14.62103456894112
Source of the keplerian elements: AFSPC

N2YO: 1403